Tracking 21092 objects as of 14-Aug-2020
HD Live streaming from Space Station
objects crossing your sky now
Track the most recent launched group of Starlink satellites

SKYSAT C15

Track SKYSAT C15 now!
10-day predictions


NORAD ID: 45790
Int'l Code: 2020-038BN
Perigee: 402.0 km
Apogee: 410.1 km
Inclination: 53.0 °
Period: 92.5 minutes
Semi major axis: 6777 km
RCS: Unknown
Launch date: June 13, 2020
Source: United States (US)
Launch site: AIR FORCE EASTERN TEST RANGE (AFETR)
aabbcc
Your satellite tracking list
Your tracking list is empty




NASA's NSSDC Master Catalog

Two Line Element Set (TLE):
1 45790U 20038BN  20226.70632579  .00003724  00000-0  59238-4 0  9996
2 45790  53.0006 357.4649 0006033 349.0447  11.0430 15.56114931  9770
Source of the keplerian elements: AFSPC